Preview of NWS' New Version of Forecast
This preview is not operational and should not be used for support decisions.

Regional Weather Roundup (RWR)

Issued by National Weather Service (NWS)

                            
000
ASUS43 KLSX 200657
RWRMO 

WEATHER SUMMARY FOR MISSOURI
NATIONAL WEATHER SERVICE SPRINGFIELD MO
200 AM CDT THU JUN 20 2019

NOTE: "FAIR" INDICATES FEW OR NO CLOUDS BELOW 12,000 FEET WITH NO
       SIGNIFICANT WEATHER AND/OR OBSTRUCTIONS TO VISIBILITY.
       CURRENT SKY AND/OR WEATHER CONDITIONS ARE NOT AVAILABLE FOR
       CHILLICOTHE AND FARMINGTON.

MOZ001>031-035>038-043-044-053-054-200800-
...NORTHERN AND WESTERN MISSOURI...
  
CITY           SKY/WX    TMP DP  RH WIND       PRES   REMARKS
KANSAS CTY INT CLEAR     62  61  96 S3        29.73R                  
LEE'S SUMMIT   CLEAR     64  61  90 CALM      29.73F                  
ST JOSEPH      CLEAR     64  62  93 SE3       29.72S                  
CHILLICOTHE      N/A     64  63  96 CALM      29.72F                  
     
$$
MOZ066>068-077>081-088>096-101>105-200800-
...SOUTHWEST MISSOURI...
  
CITY           SKY/WX    TMP DP  RH WIND       PRES   REMARKS
SPRINGFIELD    CLEAR     66  62  87 NW5       29.74R                  
JOPLIN         CLEAR     66  65  96 CALM      29.75R                  
               
$$
MOZ032>034-039>042-045>050-055>058-069>072-200800-
...CENTRAL MISSOURI...  
  
CITY           SKY/WX    TMP DP  RH WIND       PRES   REMARKS
COLUMBIA       NOT AVBL                                               
ROLLA          PTCLDY    65  63  93 NW7       29.70S                  
SEDALIA        PTCLDY    62  62 100 CALM      29.73S                  
WARRENSBURG    CLEAR     61  61 100 CALM      29.72F FOG              
               
$$
MOZ051-052-059>065-200800-
...EAST CENTRAL MISSOURI...
  
CITY           SKY/WX    TMP DP  RH WIND       PRES   REMARKS
ST LOUIS INTL  LGT RAIN  70  64  81 NW15      29.62F                  
                   
$$
MOZ072>076-082>087-097>100-106>115-200800-
...SOUTH CENTRAL AND SOUTHEAST MISSOURI...
  
CITY           SKY/WX    TMP DP  RH WIND       PRES   REMARKS
CAPE GIRARDEAU FAIR      71  67  87 W5        29.63S                  
POPLAR BLUFF   FAIR      69  69 100 SW5       29.65R                  
WEST PLAINS    CLEAR     68  66  93 W5        29.74R                  
                                       
$$